Location: Natural Bridges National Monument
(37.6093°N, 109.9767°W)
Time: 13:43:15
(UTC-06:00)

Daily predictions for brighter satellites

Satellite Brightness Start Highest point End
(mag) Time Altitude Azimuth Time Altitude Azimuth Time Altitude Azimuth
BREEZE-M DEB (TANK) 2.0 20:18:11 10° SW 20:20:34 68° SE 20:25:35 10° ENE
DELTA 2 R/B (1) 4.4 20:20:50 10° W 20:26:08 44° SSW 20:31:25 10° SE
Envisat 4.0 20:22:11 10° SE 20:26:27 28° ENE 20:30:45 10° N
Cosmos 2263 Rocket 2.9 20:22:33 10° N 20:27:51 38° ENE 20:33:05 10° SE
Cosmos 1536 Rocket 4.1 20:25:12 10° N 20:29:15 38° ENE 20:33:18 10° SSE
Cosmos 1741 Rocket 4.5 20:24:30 10° N 20:29:30 42° ENE 20:34:28 10° SE
Lacrosse 5 1.8 20:26:23 10° SW 20:31:26 77° SE 20:36:31 10° NE
BREEZE-M DEB (TANK) 3.3 20:29:00 10° NW 20:32:05 74° NE 20:44:23 10° ESE
Cosmos 2322 Rocket 2.2 20:27:36 10° SSW 20:33:18 85° ESE 20:39:02 10° NNE
Atlas Centaur 2 3.7 20:29:38 10° W 20:37:41 46° SSW 20:45:00 10° ESE
Helios 1B rocket 4.2 20:40:59 10° ENE 20:43:04 14° E 20:44:31 12° ESE
ATLAS 2AS CENTAUR R/B 3.0 20:37:57 10° SSW 20:45:29 73° ESE 20:53:33 10° NE
SL-16 R/B 2.5 20:41:22 10° SSW 20:47:01 75° WNW 20:52:42 10° NNE
GPS 2-05 Rocket1 3.6 20:44:07 10° W 20:47:21 38° SSW 20:49:57 14° SE
SJ-6B 4.3 20:50:35 10° S 20:54:26 41° W 20:58:22 10° NNW
Cosmos 1110 Rocket 4.3 20:50:10 10° S 20:55:01 43° ESE 20:59:54 10° NNE
Meteor 1-11 Rocket 3.8 20:49:32 10° S 20:55:23 87° E 21:01:07 10° N
Delta 2 Rocket 3.4 20:52:29 10° WSW 20:56:15 58° S 20:59:34 16° E
NOSS 2-3 (E) 4.5 20:51:41 10° SW 20:56:15 60° NW 21:01:31 10° NNE
Cosmos 2322 4.0 20:55:16 10° S 21:00:35 44° ESE 21:05:56 10° NE
SeaSat 1 2.7 20:58:18 10° NE 21:03:03 46° ESE 21:07:46 10° S
Cosmos 2360 Rocket 2.2 20:59:03 10° S 21:04:34 60° ESE 21:10:06 10° NNE
Cosmos 1331 Rocket 4.2 21:01:04 10° S 21:06:01 49° ESE 21:11:02 10° NNE
Meteor 1-23 Rocket 4.3 21:03:21 10° N 21:08:51 57° E 21:13:58 12° SSE
Cosmos 1850 Rocket 4.2 21:04:33 10° NNW 21:09:53 78° WSW 21:15:08 10° SSE
COSMOS 2428 3.4 21:08:55 10° SSE 21:13:50 30° ESE 21:18:44 10° NE
Resurs 1-3 3.9 21:10:10 10° S 21:14:31 67° WSW 21:18:54 10° NNW
Cosmos 220 Rocket 4.0 21:11:41 10° NNW 21:16:00 66° ENE 21:18:48 21° SSE
USA 186 2.8 21:18:06 10° S 21:21:22 48° W 21:24:39 10° NNW
Cosmos 482 Debris 4.0 21:17:57 10° SW 21:22:58 72° SE 21:24:54 22° ENE
Cosmos 1536 3.7 21:21:35 10° SSW 21:25:34 52° W 21:29:33 10° N
Cosmos 1025 Rocket 3.1 21:21:35 10° N 21:25:45 51° E 21:27:32 30° SE
Cosmos 1300 Rocket 4.3 21:21:43 10° SSW 21:25:55 53° W 21:30:09 10° N
Meteor 1-5 Rocket 4.1 21:21:19 10° S 21:26:39 85° W 21:31:58 10° N
Cosmos 2333 Rocket 4.0 21:29:06 14° ENE 21:29:06 14° ENE 21:30:29 10° ENE
Tiangong 1 1.2 21:26:06 10° WNW 21:28:48 46° SSW 21:28:58 45° SSW
Okean 1 Rocket 3.1 21:24:47 10° S 21:29:07 78° W 21:33:31 10° N
BREEZE M DEB (TANK) 3.1 21:18:54 10° SW 21:29:47 70° SE 21:32:14 20° ENE
Cosmos 1939 Rocket 2.7 21:27:31 22° SSE 21:30:01 89° ENE 21:33:58 10° NNW
Cosmos 883 Rocket 4.4 21:24:11 10° N 21:30:20 84° E 21:36:10 12° S
Meteosat 1 Rocket2 4.5 21:26:13 10° WSW 21:30:33 33° S 21:32:37 26° SE
Cosmos 1607 4.1 21:27:34 10° NNW 21:34:02 75° WSW 21:38:34 21° SSE
Spot 2 Rocket 4.4 21:30:53 10° S 21:35:47 47° W 21:40:41 10° NNW
Helios 1A 2.9 21:37:47 38° SE 21:39:16 67° ENE 21:43:30 10° N
Meteor 2-4 Rocket 4.5 21:34:36 10° NNW 21:40:03 52° W 21:45:37 10° S
Cosmos 1244 Rocket 4.4 21:38:25 17° SSE 21:43:12 60° E 21:49:15 10° NNE
USA 238 DEB 3.9 21:38:11 10° NNW 21:45:14 63° NE 21:48:31 33° ESE
USA 238 3.9 21:38:17 10° NNW 21:45:20 63° NE 21:48:36 33° ESE
YAOGAN 6 2.5 21:44:35 50° S 21:45:25 81° WSW 21:48:56 10° NNW
SL-8 R/B 4.1 21:41:01 10° NW 21:45:42 51° NNE 21:47:12 37° E
Cosmos 1238 Rocket 4.2 21:40:52 10° N 21:47:16 49° ENE 21:49:12 37° SE
Cosmos 1818 3.5 21:42:01 10° SSW 21:47:21 65° ESE 21:52:45 10° NE
OAO 1 Rocket 4.4 21:42:15 10° W 21:47:34 67° S 21:49:12 43° ESE
ERS-1 Rocket 3.2 21:46:58 41° ESE 21:48:05 48° ENE 21:52:55 10° N
Abrixas 3.8 21:48:34 10° WSW 21:50:22 33° WNW 21:50:22 33° WNW
Okean 1-7 Rocket 3.6 21:48:09 10° N 21:52:40 81° W 21:54:27 37° S
ATLAS 3B R/B 2.5 21:47:53 10° NNW 21:54:36 82° ENE 21:57:14 39° SE
ARGOS 3.6 21:54:02 39° E 21:54:48 41° ENE 21:59:49 10° N
Meteor 1-29 3.4 21:51:53 10° NNE 21:54:32 51° NNE 21:54:32 51° NNE
Resurs 01 Rocket 4.0 21:52:31 10° SW 21:55:54 21° W 21:59:17 10° NW
Cosmos 1066 Rocket 4.4 21:51:22 10° N 21:56:39 49° ENE 21:57:29 45° ESE
USA 267 4.3 21:58:15 18° S 22:02:22 36° SW 22:08:19 10° WNW
USA 245 4.3 22:09:10 41° NE 22:09:10 41° NE 22:12:27 10° N
SPOT 5 3.5 22:11:06 40° NE 22:11:06 40° NE 22:14:55 10° N
Cosmos 2263 Rocket 3.9 22:06:50 10° NW 22:11:34 28° WSW 22:15:50 12° SSW
Lacrosse 5 4.3 22:11:02 10° W 22:14:54 21° NNW 22:18:47 10° NNE
Aureole 3 Rocket 3.9 22:09:10 10° N 22:16:59 79° E 22:18:23 56° SSE
Cosmos 1844 Rocket 2.6 22:12:22 10° NNW 22:18:01 66° ENE 22:18:29 63° E
Helios 1B rocket 3.6 22:14:40 10° N 22:18:32 41° WNW 22:20:52 21° SW
MetOp-B 4.0 22:19:07 69° SSE 22:19:46 84° ENE 22:25:09 10° NNW
Cosmos 2278 Rocket 3.4 22:15:25 10° N 22:20:01 27° NE 22:20:01 27° NE
NOSS 3-2 (C) 4.4 22:14:50 10° NNW 22:22:09 50° NE 22:24:12 41° E
Cosmos 1892 Rocket 3.7 22:19:05 10° N 22:23:06 71° NW 22:23:06 71° NW
Atlas Centaur 2 4.1 22:20:15 10° WSW 22:26:34 25° SSW 22:27:38 24° SSW
H-2A R/B 2.4 22:27:33 48° NE 22:27:33 48° NE 22:31:38 10° N
Cosmos 2219 Rocket 2.0 22:31:37 82° SSE 22:31:50 85° ESE 22:37:31 10° NNE
Cosmos 1544 Rocket 4.1 22:34:25 58° NW 22:34:25 58° NW 22:38:27 10° N
Cosmos 1745 Rocket 3.8 22:35:31 74° SSE 22:36:06 84° E 22:42:17 10° N
Cosmos 1486 Rocket 4.2 22:31:06 10° NNW 22:36:16 64° WSW 22:36:24 64° WSW
CENTAUR R/B 4.2 22:34:53 10° NNW 22:41:41 31° NE 22:43:45 28° ENE
Terra 3.5 22:43:40 23° NNE 22:43:40 23° NNE 22:45:57 10° N
Cosmos 1975 4.5 22:45:06 32° WNW 22:45:06 32° WNW 22:48:20 10° NNW
Cosmos 1455 Rocket 4.1 22:46:55 45° NW 22:46:55 45° NW 22:50:31 10° N
NOSS 3-4 (A) 3.4 22:40:58 10° SW 22:47:15 81° WNW 22:53:42 10° NNE
NOSS 3-4 (C) 3.4 22:43:51 28° SW 22:47:21 81° WNW 22:53:49 10° NNE
Cosmos 1386 Rocket 4.4 22:55:34 84° NNW 22:55:34 84° NNW 23:01:42 10° N
COSMOS 2428 4.1 22:52:43 10° SW 22:57:56 35° WNW 23:03:11 10° N
Cosmos 1844 4.1 22:57:42 10° NNW 23:02:38 61° WNW 23:02:38 61° WNW
Cosmos 2333 Rocket 2.8 23:11:01 55° NW 23:11:01 55° NW 23:16:07 10° NNE
Cosmos 2237 Rocket 3.4 23:23:58 37° N 23:23:58 37° N 23:27:21 10° NNE
NOSS 3-2 (A) 4.4 23:25:13 10° NW 23:32:34 54° WSW 23:32:34 54° WSW
